Meteo Giornale » Osservazioni meteo Italia » Venezia-Tessera

ore: 00:50 - Osservazioni Meteo Venezia-Tessera
Lat. 45° 30' N Lon. 12° 20' E Alt. 2 metri s.l.m.

nebbia Europe/Rome

12 °C

Banco di Nebbia

Temp. 24 Ore

12 °C

15 °C

Nord

3.7 Km/h

Dew point 11 °C

Umidità 93 %

Visibilità  1 Km

Il sole sorge alle ore 07:32

Il sole tramonta alle ore 18:17

Data e Ora Cielo e Fenomeni T °C DP °C Um. % Pres. hPa Vis. km Vento km/h
Oggi h: 00:50 nebbia Banco di Nebbia 12 11 93 1019 1 N 3.7
Oggi h: 00:20 nebbia Banco di Nebbia 12 11 93 1019 1 N 5.5
Ieri h: 23:50 nebbia Banco di Nebbia 12 12 100 1019 1 N 3.7
Ieri h: 23:20 nebbia Banco di Nebbia 12 12 100 1019 1 N 3.7
Ieri h: 22:50 nebbia Banco di Nebbia 12 12 100 1019 1 N 5.5
Ieri h: 22:20 foschia Foschia 12 12 100 1019 2 N 5.5
Ieri h: 21:50 foschia Foschia 12 11 93 1019 2 N 5.5
Ieri h: 21:20 foschia Foschia 13 12 93 1018 2 N 5.5
Ieri h: 20:50 foschia Foschia 13 12 93 1018 2 N 3.7
Ieri h: 20:20 foschia Foschia 14 12 87 1019 3 N 5.5
Ieri h: 19:50 foschia Foschia 15 12 82 1018 3 N 5.5
Ieri h: 19:20 foschia Foschia 15 12 82 1018 3 O 9.3
Ieri h: 18:50 foschia Foschia 15 12 82 1018 3 O/NO 9.3
Ieri h: 18:20 foschia Foschia 15 13 87 1018 3 NO 9.3
Ieri h: 17:50 foschia Foschia 15 13 87 1018 3 N 5.5
Ieri h: 17:20 foschia Foschia 15 12 82 1018 3 N 1.8
Ieri h: 16:50 foschia Foschia 15 13 87 1018 2 N 5.5
Ieri h: 16:20 foschia Foschia 15 12 82 1018 2 N 3.7
Ieri h: 15:50 foschia Foschia 15 12 82 1018 2 N 3.7
Ieri h: 15:20 foschia Foschia 15 12 82 1018 2 N 1.8
Ieri h: 14:50 foschia Foschia 15 12 82 1018 3 N 5.5
Ieri h: 14:20 foschia Foschia 14 12 87 1019 3 N 7.4
Ieri h: 13:50 foschia Foschia 14 12 87 1019 3 E/NE 7.4
Ieri h: 13:20 foschia Foschia 14 12 87 1019 3 N 3.7
Ieri h: 12:50 foschia Foschia 14 12 87 1019 3 N 7.4
Ieri h: 12:20 foschia Foschia 14 12 87 1020 3 N/NO 7.4
Ieri h: 11:50 foschia Foschia 13 12 93 1020 3 N 5.5
Ieri h: 11:20 foschia Foschia 13 12 93 1020 3 N 9.3
Ieri h: 10:50 foschia Foschia 13 12 93 1020 3 N 9.3
Ieri h: 10:20 foschia Foschia 13 12 93 1019 2 N 7.4
Ieri h: 09:50 foschia Foschia 13 12 93 1019 2 N 3.7
Ieri h: 09:20 foschia Foschia 12 12 100 1019 2 N 5.5
Ieri h: 08:50 foschia Foschia 12 12 100 1019 2 N 5.5
Ieri h: 08:20 foschia Foschia 12 12 100 1019 1 N 5.5
Ieri h: 07:50 foschia Foschia 12 12 100 1018 1 N 7.4
Ieri h: 07:20 foschia Foschia 12 12 100 1018 1 N 7.4
Ieri h: 06:50 foschia Foschia 12 12 100 1018 1 N 7.4
Ieri h: 06:20 foschia Foschia 12 12 100 1018 1 O/NO 7.4
Ieri h: 05:50 foschia Foschia 12 12 100 1018 1 N 5.5
Ieri h: 05:20 nebbia Banco di Nebbia 12 12 100 1018 1 N/NE 7.4
Ieri h: 04:50 nebbia Nebbia 12 12 100 1018 0.5 N 5.5
Ieri h: 04:20 nebbia Nebbia 12 12 100 1018 0.5 N 7.4
Ieri h: 03:50 nebbia Nebbia 13 12 93 1018 0.4 N 5.5
Ieri h: 03:20 nebbia Nebbia 13 12 93 1018 0.4 N/NE 7.4
Ieri h: 02:50 nebbia Nebbia 13 12 93 1019 0.5 N/NO 7.4
Ieri h: 02:20 nebbia NebbiaParziale 13 12 93 1019 0.6 N/NO 7.4
Ieri h: 01:50 foschia Foschia 13 12 93 1019 2 N 3.7